Hourly Data Report for October 11, 2017

All times are specified in Local Standard Time (LST). Add 1 hour to adjust for Daylight Saving Time where and when it is observed.

GRAND MANAN SAR CS
NEW BRUNSWICK

44°42'43.400" N
66°48'06.900" W
78.20 m
8101925
71030
XGM

Download Data

Hourly Data (October 2017)
Hourly Data Report for October 11, 2017
Temp Definition
°C
Dew Point Temp Definition
°C
Rel Hum Definition
%
Wind Dir Definition
10's deg

Wind Spd Definition
km/h
Visibility Definition
km
Stn Press Definition
kPa
Hmdx Definition


Wind Chill Definition


Weather Definition


TIME
00:00 13.0 11.4 90 28 6   100.63     LegendNANA
01:00 14.4 12.7 89 35 7   100.71     LegendNANA
02:00 14.2 11.9 86 35 11   100.73     LegendNANA
03:00 13.3 8.9 75 35 10   100.78     LegendNANA
04:00 12.2 8.7 79 35 10   100.82     LegendNANA
05:00 11.1 7.9 81 35 8   100.91     LegendNANA
06:00 10.5 7.8 83 34 6   100.97     LegendNANA
07:00 9.3 6.8 84 33 5   101.03     LegendNANA
08:00 11.4 7.7 78 34 11   101.10     LegendNANA
09:00 12.3 7.0 70 34 16   101.20     LegendNANA
10:00 12.9 5.3 60 36 17   101.20     LegendNANA
11:00 13.2 4.9 57 34 16   101.21     LegendNANA
12:00 13.5 4.0 52 35 15   101.18     LegendNANA
13:00 13.9 3.6 50 35 18   101.16     LegendNANA
14:00 13.9 1.7 43 35 16   101.19     LegendNANA
15:00 14.0 1.6 43 35 19   101.20     LegendNANA
16:00 13.4 2.4 47 35 14   101.23     LegendNANA
17:00 12.1 3.5 56 35 7   101.31     LegendNANA
18:00 10.2 3.6 63 1 4   101.36     LegendNANA
19:00 10.9 3.1 58 35 13   101.44     LegendNANA
20:00 10.1 2.2 58 36 17   101.54     LegendNANA
21:00 9.1 1.8 60 1 13   101.63     LegendNANA
22:00 9.1 1.3 58 36 19   101.70     LegendNANA
23:00 8.3 0.9 59 1 19   101.71     LegendNANA

Notes on Data Quality.

Legend

  • E = Estimated
  • M = Missing
  • NA = Not Available
  • ‡ = Partner data that is not subject to review by the National Climate Archives
Date modified: